Regional Weather Roundup
Issued by NWS Albany, NY

Home | Current Version | Previous Version | Graphics & Text | Print | Product List | Glossary Off
Versions: 1 2 3 4 5 6 7 8 9 10 11 12 13 14 15 16 17 18 19 20 21 22 23 24 25 26 27 28 29 30 31 32 33 34 35 36 37 38 39 40 41 42 43 44 45 46 47 48 49 50

000
ASUS41 KALY 232210
RWRALY

NEW YORK STATE HOURLY WEATHER ROUNDUP
NATIONAL WEATHER SERVICE ALBANY NY
600 PM EDT SAT MAY 23 2015

NOTE: "FAIR" INDICATES FEW OR NO CLOUDS BELOW 12,000 FEET WITH NO
SIGNIFICANT WEATHER AND/OR NO OBSTRUCTIONS TO VISIBILITY.

NYZ032-033-038>043-046>054-057>066-NYZ062>081-232300-
EAST


CITY           SKY/WX    TMP DP  RH WIND       PRES   REMARKS
ALBANY         MOSUNNY   63  26  24 W12G22    30.32F
GLENS FALLS    SUNNY     64  25  22 SW16G22   30.26F
POUGHKEEPSIE   SUNNY     68  27  21 W13G21    30.30F
MONTGOMERY     SUNNY     67  28  23 VRB5      30.31F
WHITE PLAINS   SUNNY     66  27  23 NW12      30.32F
ISLIP          MOSUNNY   64  29  26 S15       30.33F
NEW YORK CITY  SUNNY     66  32  28 S15       30.33S
CENTRAL PARK   SUNNY     69  27  20 W8        30.35F
$$

NYZ005>009-017-018-044>046-055-056-232300-
CENTRAL


CITY           SKY/WX    TMP DP  RH WIND       PRES   REMARKS
FULTON         MOSUNNY   62  31  31 W9        30.33F
SYRACUSE       MOSUNNY   64  31  28 VRB5      30.32F
ROME           SUNNY     60  29  30 W12G21    30.34F
ELMIRA         SUNNY     69  29  22 NW8       30.31F
BINGHAMTON     SUNNY     62  27  26 W10       30.33F
MONTICELLO     SUNNY     61  28  29 NW10      30.35S
$$

NYZ026>034-041>043-232300-
NORTH


CITY           SKY/WX    TMP DP  RH WIND       PRES   REMARKS
WATERTOWN      PTSUNNY   56  26  31 SW10      30.30F
FORT DRUM      NOT AVBL
MASSENA        MOSUNNY   59  29  31 SW23G32   30.23F
SARANAC LAKE   CLOUDY    51  22  31 SW13G21   30.25F
PLATTSBURGH    CLOUDY    60  22  23 W8G17     30.22F
$$

NYZ001>004-010>016-019>021-232300-
WEST


CITY           SKY/WX    TMP DP  RH WIND       PRES   REMARKS
NIAGARA FALLS  MOSUNNY   63  27  25 SW20G25   30.32F
BUFFALO        MOSUNNY   62  21  20 SW14      30.34F
DUNKIRK        SUNNY     62  24  23 W9        30.36F
JAMESTOWN      SUNNY     63  34  34 W12       30.37S
WELLSVILLE     SUNNY     65  23  20 W9G20     30.36F
ROCHESTER      MOSUNNY   66  24  20 W14       30.32F
PENN YAN       SUNNY     66  25  21 VRB3      30.33F
$$

             KEY
       WCI = WIND CHILL INDEX
       VSB = VISIBILITY
       HX  = HEAT INDEX
$$


USA.gov is the U.S. government's official web portal to all federal, state and local government web resources and services.